Time,TemperatureF,DewpointF,PressureIn,WindDirection,WindDirectionDegrees,WindSpeedMPH,WindSpeedGustMPH,Humidity,HourlyPrecipIn,Conditions,Clouds,dailyrainin,SoftwareType,DateUTC
2013-05-30 00:01:00,76.5,72.3,29.76,ESE,119,15.0,15.0,87,0.00,CLR,,0.00,WeatherDisplay:10.37,2013-05-30 05:01:00,
2013-05-30 00:06:00,76.5,72.3,29.76,SE,127,8.1,8.1,87,0.00,CLR,,0.00,WeatherDisplay:10.37,2013-05-30 05:06:00,
2013-05-30 00:11:00,76.4,72.2,29.76,SE,134,10.4,10.4,87,0.00,CLR,,0.00,WeatherDisplay:10.37,2013-05-30 05:11:00,
2013-05-30 00:16:00,76.4,72.2,29.76,SSE,147,13.8,13.8,87,0.00,CLR,,0.00,WeatherDisplay:10.37,2013-05-30 05:16:00,
2013-05-30 00:21:00,76.4,72.2,29.76,SE,127,11.5,11.5,87,0.00,CLR,,0.00,WeatherDisplay:10.37,2013-05-30 05:21:00,
2013-05-30 00:26:00,76.3,72.5,29.75,SE,146,11.5,11.5,88,0.00,CLR,,0.00,WeatherDisplay:10.37,2013-05-30 05:26:00,
2013-05-30 00:31:00,76.2,72.4,29.75,ESE,109,11.5,11.5,88,0.00,CLR,,0.00,WeatherDisplay:10.37,2013-05-30 05:31:00,
2013-05-30 00:36:00,76.1,72.3,29.75,SE,145,10.0,10.0,88,0.00,CLR,,0.00,WeatherDisplay:10.37,2013-05-30 05:36:00,
2013-05-30 00:41:00,76.1,72.3,29.75,SE,134,11.5,11.5,88,0.00,CLR,,0.00,WeatherDisplay:10.37,2013-05-30 05:41:00,
2013-05-30 00:46:00,76.0,72.2,29.76,SE,143,11.5,11.5,88,0.00,CLR,,0.00,WeatherDisplay:10.37,2013-05-30 05:46:00,
2013-05-30 00:51:00,76.1,72.3,29.75,SE,134,16.1,16.1,88,0.00,CLR,,0.00,WeatherDisplay:10.37,2013-05-30 05:51:00,
2013-05-30 00:56:00,76.2,72.4,29.76,SE,142,16.1,16.1,88,0.00,CLR,,0.00,WeatherDisplay:10.37,2013-05-30 05:56:00,
2013-05-30 01:01:00,76.1,72.3,29.76,SE,140,11.5,11.5,88,0.00,CLR,,0.00,WeatherDisplay:10.37,2013-05-30 06:01:00,
2013-05-30 01:06:00,76.2,72.4,29.76,ESE,102,15.0,15.0,88,0.00,CLR,,0.00,WeatherDisplay:10.37,2013-05-30 06:06:00,
2013-05-30 01:11:00,76.2,72.4,29.76,SE,138,16.1,16.1,88,0.00,CLR,,0.00,WeatherDisplay:10.37,2013-05-30 06:11:00,
2013-05-30 01:16:00,76.2,72.4,29.76,SE,124,11.5,11.5,88,0.00,CLR,,0.00,WeatherDisplay:10.37,2013-05-30 06:16:00,
2013-05-30 01:21:00,76.2,72.4,29.76,ESE,119,8.1,8.1,88,0.00,CLR,,0.00,WeatherDisplay:10.37,2013-05-30 06:21:00,
2013-05-30 01:26:00,76.3,72.5,29.75,SSE,148,16.1,16.1,88,0.00,CLR,,0.00,WeatherDisplay:10.37,2013-05-30 06:26:00,
2013-05-30 01:31:00,76.3,72.5,29.75,ESE,106,9.2,9.2,88,0.00,CLR,,0.00,WeatherDisplay:10.37,2013-05-30 06:31:00,
2013-05-30 01:36:00,76.2,72.4,29.76,ESE,122,14.0,14.0,88,0.00,CLR,,0.00,WeatherDisplay:10.37,2013-05-30 06:36:00,
2013-05-30 01:41:00,76.2,72.4,29.76,SE,136,12.7,12.7,88,0.00,CLR,,0.00,WeatherDisplay:10.37,2013-05-30 06:41:00,
2013-05-30 01:46:00,76.3,72.5,29.76,SE,132,15.0,15.0,88,0.00,CLR,,0.00,WeatherDisplay:10.37,2013-05-30 06:46:00,
2013-05-30 01:52:00,76.3,72.5,29.75,SE,141,12.7,12.7,88,0.00,CLR,,0.00,WeatherDisplay:10.37,2013-05-30 06:52:00,
2013-05-30 01:57:00,76.4,72.6,29.75,ESE,113,14.0,14.0,88,0.00,CLR,,0.00,WeatherDisplay:10.37,2013-05-30 06:57:00,
2013-05-30 02:02:00,76.5,72.7,29.75,SE,138,12.7,12.7,88,0.00,CLR,,0.00,WeatherDisplay:10.37,2013-05-30 07:02:00,
2013-05-30 02:07:00,76.4,72.6,29.75,SE,143,9.2,9.2,88,0.00,CLR,,0.00,WeatherDisplay:10.37,2013-05-30 07:07:00,
2013-05-30 02:12:00,76.4,72.6,29.75,SSE,160,8.1,8.1,88,0.00,CLR,,0.00,WeatherDisplay:10.37,2013-05-30 07:12:00,
2013-05-30 02:17:00,76.4,72.6,29.75,SE,141,15.0,15.0,88,0.00,CLR,,0.00,WeatherDisplay:10.37,2013-05-30 07:17:00,
2013-05-30 02:22:00,76.3,72.5,29.75,SE,145,12.7,12.7,88,0.00,CLR,,0.00,WeatherDisplay:10.37,2013-05-30 07:22:00,
2013-05-30 02:27:00,76.4,72.6,29.75,East,91,11.5,11.5,88,0.00,CLR,,0.00,WeatherDisplay:10.37,2013-05-30 07:27:00,
2013-05-30 02:33:00,76.4,72.6,29.75,East,88,12.7,12.7,88,0.00,CLR,,0.00,WeatherDisplay:10.37,2013-05-30 07:33:00,
2013-05-30 02:38:00,76.4,72.6,29.75,SE,134,16.1,16.1,88,0.00,CLR,,0.00,WeatherDisplay:10.37,2013-05-30 07:38:00,
2013-05-30 02:43:00,76.5,72.7,29.75,SE,133,11.0,11.0,88,0.00,CLR,,0.00,WeatherDisplay:10.37,2013-05-30 07:43:00,
2013-05-30 02:48:00,76.5,72.7,29.75,SE,141,16.1,16.1,88,0.00,CLR,,0.00,WeatherDisplay:10.37,2013-05-30 07:48:00,
2013-05-30 02:53:00,76.6,72.4,29.75,SE,144,11.5,11.5,87,0.00,CLR,,0.00,WeatherDisplay:10.37,2013-05-30 07:53:00,
2013-05-30 02:58:00,76.5,72.7,29.75,SE,130,13.8,13.8,88,0.00,CLR,,0.00,WeatherDisplay:10.37,2013-05-30 07:58:00,
2013-05-30 03:03:00,76.5,72.7,29.75,ESE,115,9.2,9.2,88,0.00,CLR,,0.00,WeatherDisplay:10.37,2013-05-30 08:03:00,
2013-05-30 03:09:00,76.4,72.6,29.75,ESE,117,9.2,9.2,88,0.00,CLR,,0.00,WeatherDisplay:10.37,2013-05-30 08:09:00,
2013-05-30 03:14:00,76.4,72.6,29.74,ESE,123,11.5,11.5,88,0.00,CLR,,0.00,WeatherDisplay:10.37,2013-05-30 08:14:00,
2013-05-30 03:22:00,76.4,72.6,29.75,ESE,118,11.5,11.5,88,0.00,CLR,,0.00,WeatherDisplay:10.37,2013-05-30 08:22:00,
2013-05-30 03:27:00,76.4,72.6,29.75,SE,129,11.5,11.5,88,0.00,CLR,,0.00,WeatherDisplay:10.37,2013-05-30 08:27:00,
2013-05-30 03:32:00,76.4,72.6,29.75,ESE,115,8.1,8.1,88,0.00,CLR,,0.00,WeatherDisplay:10.37,2013-05-30 08:32:00,
2013-05-30 03:37:00,76.4,72.6,29.75,SE,143,8.0,8.0,88,0.00,CLR,,0.00,WeatherDisplay:10.37,2013-05-30 08:37:00,
2013-05-30 03:43:00,76.4,72.6,29.75,SE,143,13.8,13.8,88,0.00,CLR,,0.00,WeatherDisplay:10.37,2013-05-30 08:43:00,
2013-05-30 03:48:00,76.4,72.2,29.75,SSE,147,10.4,10.4,87,0.00,CLR,,0.00,WeatherDisplay:10.37,2013-05-30 08:48:00,
2013-05-30 03:54:00,76.5,72.3,29.75,SE,132,11.5,11.5,87,0.00,CLR,,0.00,WeatherDisplay:10.37,2013-05-30 08:54:00,
2013-05-30 04:00:00,76.5,72.3,29.75,SSE,154,11.0,11.0,87,0.00,CLR,,0.00,WeatherDisplay:10.37,2013-05-30 09:00:00,
2013-05-30 04:05:00,76.6,72.4,29.75,SSE,151,11.5,11.5,87,0.00,CLR,,0.00,WeatherDisplay:10.37,2013-05-30 09:05:00,
2013-05-30 04:11:00,76.6,72.4,29.75,SE,134,12.7,12.7,87,0.00,CLR,,0.00,WeatherDisplay:10.37,2013-05-30 09:11:00,
2013-05-30 04:16:00,76.4,72.6,29.75,SSE,147,9.2,9.2,88,0.00,CLR,,0.00,WeatherDisplay:10.37,2013-05-30 09:16:00,
2013-05-30 04:21:00,76.4,72.6,29.75,SE,129,5.8,5.8,88,0.00,CLR,,0.00,WeatherDisplay:10.37,2013-05-30 09:21:00,
2013-05-30 04:26:00,76.3,72.5,29.75,SE,143,11.5,11.5,88,0.00,CLR,,0.00,WeatherDisplay:10.37,2013-05-30 09:26:00,
2013-05-30 04:32:00,76.2,72.4,29.74,SE,141,5.8,5.8,88,0.00,CLR,,0.00,WeatherDisplay:10.37,2013-05-30 09:32:00,
2013-05-30 04:37:00,76.1,72.3,29.75,SSE,156,11.5,11.5,88,0.00,CLR,,0.00,WeatherDisplay:10.37,2013-05-30 09:37:00,
2013-05-30 04:44:00,76.1,72.3,29.74,SSE,153,5.8,5.8,88,0.00,CLR,,0.00,WeatherDisplay:10.37,2013-05-30 09:44:00,
2013-05-30 04:51:00,76.1,72.3,29.74,SSE,148,8.1,8.1,88,0.00,CLR,,0.00,WeatherDisplay:10.37,2013-05-30 09:51:00,
2013-05-30 04:56:00,76.1,72.3,29.74,SE,124,9.2,9.2,88,0.00,CLR,,0.00,WeatherDisplay:10.37,2013-05-30 09:56:00,
2013-05-30 05:02:00,76.2,72.4,29.74,SE,129,16.1,16.1,88,0.00,CLR,,0.00,WeatherDisplay:10.37,2013-05-30 10:02:00,
2013-05-30 05:08:00,76.1,72.3,29.74,SSE,154,10.4,10.4,88,0.00,CLR,,0.00,WeatherDisplay:10.37,2013-05-30 10:08:00,
2013-05-30 05:13:00,76.1,72.3,29.74,SE,133,13.8,13.8,88,0.00,CLR,,0.00,WeatherDisplay:10.37,2013-05-30 10:13:00,
2013-05-30 05:18:00,76.2,72.4,29.74,SSE,151,10.4,10.4,88,0.00,CLR,,0.00,WeatherDisplay:10.37,2013-05-30 10:18:00,
2013-05-30 05:25:00,76.2,72.4,29.74,SE,143,8.1,8.1,88,0.00,CLR,,0.00,WeatherDisplay:10.37,2013-05-30 10:25:00,
2013-05-30 05:30:00,76.1,72.3,29.74,SE,131,12.7,12.7,88,0.00,CLR,,0.00,WeatherDisplay:10.37,2013-05-30 10:30:00,
2013-05-30 05:36:00,76.1,72.6,29.75,SE,145,11.5,11.5,89,0.00,CLR,,0.00,WeatherDisplay:10.37,2013-05-30 10:36:00,
2013-05-30 05:41:00,76.2,72.7,29.75,SE,135,13.8,13.8,89,0.00,CLR,,0.00,WeatherDisplay:10.37,2013-05-30 10:41:00,
2013-05-30 05:46:00,76.1,72.6,29.75,SE,133,9.2,9.2,89,0.00,CLR,,0.00,WeatherDisplay:10.37,2013-05-30 10:46:00,
2013-05-30 05:52:00,76.1,72.6,29.75,SE,142,9.2,9.2,89,0.00,CLR,,0.00,WeatherDisplay:10.37,2013-05-30 10:52:00,
2013-05-30 05:58:00,76.1,72.6,29.75,SE,141,9.0,9.0,89,0.00,CLR,,0.00,WeatherDisplay:10.37,2013-05-30 10:58:00,
2013-05-30 06:04:00,76.1,72.6,29.75,SSE,152,9.2,9.2,89,0.00,CLR,,0.00,WeatherDisplay:10.37,2013-05-30 11:04:00,
2013-05-30 06:12:00,76.1,72.6,29.75,SE,142,11.5,11.5,89,0.00,CLR,,0.00,WeatherDisplay:10.37,2013-05-30 11:12:00,
2013-05-30 06:17:00,76.2,72.7,29.76,SE,129,9.2,9.2,89,0.00,CLR,,0.00,WeatherDisplay:10.37,2013-05-30 11:17:00,
2013-05-30 06:22:00,76.3,72.8,29.76,SSE,167,9.2,9.2,89,0.00,CLR,,0.00,WeatherDisplay:10.37,2013-05-30 11:22:00,
2013-05-30 06:28:00,76.3,72.8,29.76,SE,141,12.0,12.0,89,0.00,CLR,,0.00,WeatherDisplay:10.37,2013-05-30 11:28:00,
2013-05-30 06:34:00,76.3,72.8,29.76,SSE,154,8.1,8.1,89,0.00,CLR,,0.00,WeatherDisplay:10.37,2013-05-30 11:34:00,
2013-05-30 06:39:00,76.2,72.7,29.76,SSE,164,10.4,10.4,89,0.00,CLR,,0.00,WeatherDisplay:10.37,2013-05-30 11:39:00,
2013-05-30 06:44:00,76.2,72.7,29.77,SSE,156,8.1,8.1,89,0.00,CLR,,0.00,WeatherDisplay:10.37,2013-05-30 11:44:00,
2013-05-30 06:49:00,76.1,72.6,29.77,SSE,156,10.4,10.4,89,0.00,CLR,,0.00,WeatherDisplay:10.37,2013-05-30 11:49:00,
2013-05-30 06:55:00,76.1,72.6,29.77,SE,145,8.1,8.1,89,0.00,CLR,,0.00,WeatherDisplay:10.37,2013-05-30 11:55:00,
2013-05-30 07:01:00,76.2,72.7,29.77,SSE,163,9.2,9.2,89,0.00,CLR,,0.00,WeatherDisplay:10.37,2013-05-30 12:01:00,
2013-05-30 07:08:00,76.3,72.8,29.78,SSE,156,0.0,0.0,89,0.00,CLR,,0.00,WeatherDisplay:10.37,2013-05-30 12:08:00,
2013-05-30 07:13:00,76.3,72.8,29.78,South,172,0.0,0.0,89,0.00,CLR,,0.00,WeatherDisplay:10.37,2013-05-30 12:13:00,
2013-05-30 07:20:00,76.4,72.9,29.78,SSE,159,6.9,6.9,89,0.00,CLR,,0.00,WeatherDisplay:10.37,2013-05-30 12:20:00,
2013-05-30 07:27:00,76.4,72.9,29.78,SE,146,9.2,9.2,89,0.00,CLR,,0.00,WeatherDisplay:10.37,2013-05-30 12:27:00,
2013-05-30 07:33:00,76.5,73.0,29.78,SSE,160,11.5,11.5,89,0.00,CLR,,0.00,WeatherDisplay:10.37,2013-05-30 12:33:00,
2013-05-30 07:39:00,76.7,73.2,29.78,South,182,11.5,11.5,89,0.00,CLR,,0.00,WeatherDisplay:10.37,2013-05-30 12:39:00,
2013-05-30 07:44:00,76.8,73.3,29.79,South,175,8.1,8.1,89,0.00,CLR,,0.00,WeatherDisplay:10.37,2013-05-30 12:44:00,
2013-05-30 07:50:00,76.9,73.4,29.79,South,170,3.5,4.2,89,0.00,CLR,,0.00,WeatherDisplay:10.37,2013-05-30 12:50:00,
2013-05-30 07:55:00,77.0,73.2,29.79,SSE,160,9.2,9.2,88,0.00,CLR,,0.00,WeatherDisplay:10.37,2013-05-30 12:55:00,
2013-05-30 08:02:00,77.0,73.2,29.79,SSE,160,12.7,12.7,88,0.00,CLR,,0.00,WeatherDisplay:10.37,2013-05-30 13:02:00,
2013-05-30 08:09:00,77.1,73.3,29.80,SSE,150,11.5,11.5,88,0.00,CLR,,0.00,WeatherDisplay:10.37,2013-05-30 13:09:00,
2013-05-30 08:14:00,77.2,73.4,29.80,South,169,15.0,15.0,88,0.00,CLR,,0.00,WeatherDisplay:10.37,2013-05-30 13:14:00,
2013-05-30 08:19:00,77.3,73.5,29.80,SSE,153,10.4,10.4,88,0.00,CLR,,0.00,WeatherDisplay:10.37,2013-05-30 13:19:00,
2013-05-30 08:26:00,77.4,73.2,29.80,SSE,147,13.0,13.0,87,0.00,CLR,,0.00,WeatherDisplay:10.37,2013-05-30 13:26:00,
2013-05-30 08:32:00,77.5,73.3,29.80,South,179,17.3,17.3,87,0.00,CLR,,0.00,WeatherDisplay:10.37,2013-05-30 13:32:00,
2013-05-30 08:37:00,77.5,73.3,29.80,SSE,163,13.8,13.8,87,0.00,CLR,,0.00,WeatherDisplay:10.37,2013-05-30 13:37:00,
2013-05-30 08:42:00,77.5,73.3,29.80,South,174,17.3,17.3,87,0.00,CLR,,0.00,WeatherDisplay:10.37,2013-05-30 13:42:00,
2013-05-30 08:49:00,77.8,73.3,29.80,SSE,160,18.4,18.4,86,0.00,CLR,,0.00,WeatherDisplay:10.37,2013-05-30 13:49:00,
2013-05-30 08:55:00,78.2,74.0,29.80,SSE,160,11.5,11.5,87,0.00,CLR,,0.00,WeatherDisplay:10.37,2013-05-30 13:55:00,
2013-05-30 09:01:00,78.8,73.9,29.80,SSE,167,12.7,12.7,85,0.00,CLR,,0.00,WeatherDisplay:10.37,2013-05-30 14:01:00,
2013-05-30 09:07:00,79.0,73.7,29.80,SSE,162,16.1,16.1,84,0.00,CLR,,0.00,WeatherDisplay:10.37,2013-05-30 14:07:00,
2013-05-30 09:17:00,78.5,73.3,29.80,South,191,12.7,12.7,84,0.00,CLR,,0.00,WeatherDisplay:10.37,2013-05-30 14:17:00,
2013-05-30 09:28:00,79.3,74.0,29.80,SE,136,13.8,13.8,84,0.00,CLR,,0.00,WeatherDisplay:10.37,2013-05-30 14:28:00,
2013-05-30 09:36:00,79.8,73.8,29.80,SSE,165,17.3,17.3,82,0.00,CLR,,0.00,WeatherDisplay:10.37,2013-05-30 14:36:00,
2013-05-30 09:43:00,79.9,73.9,29.80,SSW,195,18.4,18.4,82,0.00,CLR,,0.00,WeatherDisplay:10.37,2013-05-30 14:43:00,
2013-05-30 09:52:00,79.4,73.4,29.80,South,173,18.4,18.4,82,0.00,CLR,,0.00,WeatherDisplay:10.37,2013-05-30 14:52:00,
2013-05-30 09:59:00,79.5,73.5,29.80,SSE,162,11.5,11.5,82,0.00,CLR,,0.00,WeatherDisplay:10.37,2013-05-30 14:59:00,
2013-05-30 10:05:00,79.6,73.6,29.80,SSW,195,15.0,15.0,82,0.00,CLR,,0.00,WeatherDisplay:10.37,2013-05-30 15:05:00,
2013-05-30 10:10:00,79.8,73.8,29.80,SSE,154,15.0,15.0,82,0.00,CLR,,0.00,WeatherDisplay:10.37,2013-05-30 15:10:00,
2013-05-30 10:16:00,80.0,73.6,29.80,SSE,159,17.0,17.0,81,0.00,CLR,,0.00,WeatherDisplay:10.37,2013-05-30 15:16:00,
2013-05-30 10:21:00,79.5,73.5,29.81,SSE,164,16.1,16.1,82,0.00,CLR,,0.00,WeatherDisplay:10.37,2013-05-30 15:21:00,
2013-05-30 10:28:00,79.0,74.1,29.80,South,170,11.5,11.5,85,0.00,CLR,,0.00,WeatherDisplay:10.37,2013-05-30 15:28:00,
2013-05-30 10:34:00,79.7,74.4,29.80,SSE,164,11.5,11.5,84,0.00,CLR,,0.00,WeatherDisplay:10.37,2013-05-30 15:34:00,
2013-05-30 10:39:00,80.1,74.5,29.80,South,174,11.5,11.5,83,0.00,CLR,,0.00,WeatherDisplay:10.37,2013-05-30 15:39:00,
2013-05-30 10:46:00,79.9,73.5,29.80,SSE,162,12.7,12.7,81,0.00,CLR,,0.00,WeatherDisplay:10.37,2013-05-30 15:46:00,
2013-05-30 10:52:00,79.9,73.9,29.80,South,169,9.2,9.2,82,0.00,CLR,,0.00,WeatherDisplay:10.37,2013-05-30 15:52:00,
2013-05-30 10:59:00,79.8,73.8,29.80,South,179,8.1,8.1,82,0.00,CLR,,0.00,WeatherDisplay:10.37,2013-05-30 15:59:00,
2013-05-30 11:04:00,80.0,74.0,29.80,SSE,150,10.4,10.4,82,0.00,CLR,,0.00,WeatherDisplay:10.37,2013-05-30 16:04:00,
2013-05-30 11:11:00,80.7,74.3,29.80,SSE,149,15.0,15.0,81,0.00,CLR,,0.00,WeatherDisplay:10.37,2013-05-30 16:11:00,
2013-05-30 11:16:00,81.1,74.3,29.80,SSE,159,15.0,15.0,80,0.00,CLR,,0.00,WeatherDisplay:10.37,2013-05-30 16:16:00,
2013-05-30 11:23:00,80.9,73.8,29.80,SSE,159,16.1,16.1,79,0.00,CLR,,0.00,WeatherDisplay:10.37,2013-05-30 16:23:00,
2013-05-30 11:28:00,81.2,74.8,29.80,SE,136,14.0,14.0,81,0.00,CLR,,0.00,WeatherDisplay:10.37,2013-05-30 16:28:00,
2013-05-30 11:36:00,81.7,74.5,29.80,SSE,166,11.5,11.5,79,0.00,CLR,,0.00,WeatherDisplay:10.37,2013-05-30 16:36:00,
2013-05-30 11:42:00,82.2,75.0,29.80,South,183,9.2,9.2,79,0.00,CLR,,0.00,WeatherDisplay:10.37,2013-05-30 16:42:00,
2013-05-30 11:47:00,83.0,74.6,29.80,SSE,156,18.4,18.4,76,0.00,CLR,,0.00,WeatherDisplay:10.37,2013-05-30 16:47:00,
2013-05-30 11:53:00,83.6,74.8,29.80,SE,143,12.7,12.7,75,0.00,CLR,,0.00,WeatherDisplay:10.37,2013-05-30 16:53:00,
2013-05-30 11:58:00,83.4,74.2,29.80,South,174,18.4,18.4,74,0.00,CLR,,0.00,WeatherDisplay:10.37,2013-05-30 16:58:00,
2013-05-30 12:04:00,83.4,73.8,29.80,South,170,23.0,23.0,73,0.00,CLR,,0.00,WeatherDisplay:10.37,2013-05-30 17:04:00,
2013-05-30 12:12:00,83.7,74.1,29.80,SSE,165,18.4,18.4,73,0.00,CLR,,0.00,WeatherDisplay:10.37,2013-05-30 17:12:00,
2013-05-30 20:55:00,83.6,73.6,29.75,SE,145,10.4,0.0,72,0.00,CLR,,0.00,WeatherDisplay:10.37,2013-05-31 01:55:00,
2013-05-30 21:00:00,83.4,73.4,29.75,SE,139,13.8,13.8,72,0.00,CLR,,0.00,WeatherDisplay:10.37,2013-05-31 02:00:00,
2013-05-30 21:05:00,83.3,73.7,29.75,SE,136,11.5,11.5,73,0.00,CLR,,0.00,WeatherDisplay:10.37,2013-05-31 02:05:00,
2013-05-30 21:10:00,83.1,73.5,29.75,SE,138,13.8,13.8,73,0.00,CLR,,0.00,WeatherDisplay:10.37,2013-05-31 02:10:00,
2013-05-30 21:15:00,82.9,73.8,29.75,SE,131,13.8,13.8,74,0.00,CLR,,0.00,WeatherDisplay:10.37,2013-05-31 02:15:00,
2013-05-30 21:20:00,82.6,73.5,29.75,SE,146,15.0,15.0,74,0.00,CLR,,0.00,WeatherDisplay:10.37,2013-05-31 02:20:00,
2013-05-30 21:25:00,82.4,73.7,29.76,SSE,149,18.4,18.4,75,0.00,CLR,,0.00,WeatherDisplay:10.37,2013-05-31 02:25:00,
2013-05-30 21:30:00,82.2,73.5,29.76,SE,131,13.8,13.8,75,0.00,CLR,,0.00,WeatherDisplay:10.37,2013-05-31 02:30:00,
2013-05-30 21:35:00,82.0,73.7,29.76,SSE,148,17.3,17.3,76,0.00,CLR,,0.00,WeatherDisplay:10.37,2013-05-31 02:35:00,
2013-05-30 21:40:00,81.8,73.9,29.76,SSE,150,11.5,11.5,77,0.00,CLR,,0.00,WeatherDisplay:10.37,2013-05-31 02:40:00,
2013-05-30 21:45:00,81.6,73.7,29.77,ESE,115,15.0,15.0,77,0.00,CLR,,0.00,WeatherDisplay:10.37,2013-05-31 02:45:00,
2013-05-30 21:50:00,81.3,73.8,29.77,SE,142,12.7,12.7,78,0.00,CLR,,0.00,WeatherDisplay:10.37,2013-05-31 02:50:00,
2013-05-30 21:55:00,81.2,74.1,29.77,East,99,12.7,12.7,79,0.00,CLR,,0.00,WeatherDisplay:10.37,2013-05-31 02:55:00,
2013-05-30 22:00:00,81.1,74.0,29.77,SE,138,16.1,16.1,79,0.00,CLR,,0.00,WeatherDisplay:10.37,2013-05-31 03:00:00,
2013-05-30 22:05:00,81.1,74.0,29.77,ESE,117,16.1,16.1,79,0.00,CLR,,0.00,WeatherDisplay:10.37,2013-05-31 03:05:00,
2013-05-30 22:10:00,81.0,73.9,29.77,SSE,153,15.0,15.0,79,0.00,CLR,,0.00,WeatherDisplay:10.37,2013-05-31 03:10:00,
2013-05-30 22:15:00,80.7,74.0,29.78,SSE,153,11.5,11.5,80,0.00,CLR,,0.00,WeatherDisplay:10.37,2013-05-31 03:15:00,
2013-05-30 22:20:00,80.6,73.9,29.78,SE,127,15.0,15.0,80,0.00,CLR,,0.00,WeatherDisplay:10.37,2013-05-31 03:20:00,
2013-05-30 22:25:00,80.4,74.0,29.78,ESE,123,13.8,13.8,81,0.00,CLR,,0.00,WeatherDisplay:10.37,2013-05-31 03:25:00,
2013-05-30 22:30:00,80.3,73.9,29.78,SE,146,12.7,12.7,81,0.00,CLR,,0.00,WeatherDisplay:10.37,2013-05-31 03:30:00,
2013-05-30 22:35:00,80.1,74.1,29.79,ESE,114,11.5,11.5,82,0.00,CLR,,0.00,WeatherDisplay:10.37,2013-05-31 03:35:00,
2013-05-30 22:40:00,80.0,74.0,29.79,SE,142,8.1,8.1,82,0.00,CLR,,0.00,WeatherDisplay:10.37,2013-05-31 03:40:00,
2013-05-30 22:45:00,79.8,73.8,29.79,SE,134,11.5,11.5,82,0.00,CLR,,0.00,WeatherDisplay:10.37,2013-05-31 03:45:00,
2013-05-30 22:50:00,79.7,74.1,29.80,SSE,149,15.0,15.0,83,0.00,CLR,,0.00,WeatherDisplay:10.37,2013-05-31 03:50:00,
2013-05-30 22:55:00,79.6,74.0,29.80,SSE,156,9.2,9.2,83,0.00,CLR,,0.00,WeatherDisplay:10.37,2013-05-31 03:55:00,
2013-05-30 23:00:00,79.4,74.1,29.80,SE,143,9.2,9.2,84,0.00,CLR,,0.00,WeatherDisplay:10.37,2013-05-31 04:00:00,
2013-05-30 23:01:00,79.4,74.1,29.80,ESE,105,8.1,8.1,84,0.00,CLR,,0.00,WeatherDisplay:10.37,2013-05-31 04:01:00,
2013-05-30 23:06:00,79.3,74.0,29.80,SE,139,8.1,8.1,84,0.00,CLR,,0.00,WeatherDisplay:10.37,2013-05-31 04:06:00,
2013-05-30 23:11:00,79.2,74.3,29.80,SSE,160,9.2,9.2,85,0.00,CLR,,0.00,WeatherDisplay:10.37,2013-05-31 04:11:00,
2013-05-30 23:16:00,79.2,74.3,29.81,South,176,10.4,10.4,85,0.00,CLR,,0.00,WeatherDisplay:10.37,2013-05-31 04:16:00,
2013-05-30 23:21:00,79.1,74.2,29.81,SE,140,6.9,6.9,85,0.00,CLR,,0.00,WeatherDisplay:10.37,2013-05-31 04:21:00,
2013-05-30 23:26:00,79.0,74.1,29.81,SE,129,13.8,13.8,85,0.00,CLR,,0.00,WeatherDisplay:10.37,2013-05-31 04:26:00,
2013-05-30 23:31:00,79.0,74.1,29.81,SSE,157,8.1,8.1,85,0.00,CLR,,0.00,WeatherDisplay:10.37,2013-05-31 04:31:00,
2013-05-30 23:36:00,78.9,74.4,29.81,SE,130,16.1,16.1,86,0.00,CLR,,0.00,WeatherDisplay:10.37,2013-05-31 04:36:00,
2013-05-30 23:41:00,78.7,74.2,29.81,ESE,120,10.4,10.4,86,0.00,CLR,,0.00,WeatherDisplay:10.37,2013-05-31 04:41:00,
2013-05-30 23:46:00,78.5,74.0,29.81,SE,128,10.4,10.4,86,0.00,CLR,,0.00,WeatherDisplay:10.37,2013-05-31 04:46:00,
2013-05-30 23:51:00,78.4,74.2,29.81,SE,132,11.5,11.5,87,0.00,CLR,,0.00,WeatherDisplay:10.37,2013-05-31 04:51:00,
2013-05-30 23:56:00,78.3,74.1,29.81,SE,135,11.5,11.5,87,0.00,CLR,,0.00,WeatherDisplay:10.37,2013-05-31 04:56:00,